owner,sensor,date,latitude,longitude,vertical_datum,wind_speed,wind_to_direction,wind_speed_of_gust,qcFlag 
ADCP,ioos:station:wmo:42369:1,2011-06-01T00:00:00Z,27.2070,-90.2830,60.4,6.8,56.0,99.0,'11111222,11111222,11144222' 
ADCP,ioos:station:wmo:42369:1,2011-06-01T00:20:00Z,27.2070,-90.2830,60.4,7.1,57.0,99.0,'11111222,11111222,11144222' 
ADCP,ioos:station:wmo:42369:1,2011-06-01T00:40:00Z,27.2070,-90.2830,60.4,7.4,58.0,99.0,'11111222,11111222,11144222' 
ADCP,ioos:station:wmo:42369:1,2011-06-01T01:00:00Z,27.2070,-90.2830,60.4,7.1,57.0,99.0,'11111222,11111222,11144222' 
ADCP,ioos:station:wmo:42369:1,2011-06-01T01:20:00Z,27.2070,-90.2830,60.4,6.7,61.0,99.0,'11111222,11111222,11144222' 
ADCP,ioos:station:wmo:42369:1,2011-06-01T01:40:00Z,27.2070,-90.2830,60.4,7.2,65.0,99.0,'11111222,11111222,11144222' 
ADCP,ioos:station:wmo:42369:1,2011-06-01T02:00:00Z,27.2070,-90.2830,60.4,7.4,75.0,99.0,'11111222,11111222,11144222' 
ADCP,ioos:station:wmo:42369:1,2011-06-01T02:20:00Z,27.2070,-90.2830,60.4,7.0,73.0,99.0,'11111222,11111222,11144222' 
ADCP,ioos:station:wmo:42369:1,2011-06-01T02:40:00Z,27.2070,-90.2830,60.4,6.9,74.0,99.0,'11111222,11111222,11144222' 
ADCP,ioos:station:wmo:42369:1,2011-06-01T03:00:00Z,27.2070,-90.2830,60.4,6.4,77.0,99.0,'11111222,11111222,11144222' 
ADCP,ioos:station:wmo:42369:1,2011-06-01T03:20:00Z,27.2070,-90.2830,60.4,6.4,80.0,99.0,'11111222,11111222,11144222' 
ADCP,ioos:station:wmo:42369:1,2011-06-01T04:00:00Z,27.2070,-90.2830,60.4,6.6,93.0,99.0,'11111222,11111222,11144222' 
ADCP,ioos:station:wmo:42369:1,2011-06-01T04:20:00Z,27.2070,-90.2830,60.4,6.3,93.0,99.0,'11111222,11111222,11144222' 
ADCP,ioos:station:wmo:42369:1,2011-06-01T04:40:00Z,27.2070,-90.2830,60.4,6.1,89.0,99.0,'11111222,11111222,11144222' 
ADCP,ioos:station:wmo:42369:1,2011-06-01T05:00:00Z,27.2070,-90.2830,60.4,5.5,92.0,99.0,'11111222,11111222,11144222' 
ADCP,ioos:station:wmo:42369:1,2011-06-01T05:20:00Z,27.2070,-90.2830,60.4,5.4,94.0,99.0,'11111222,11111222,11144222' 
ADCP,ioos:station:wmo:42369:1,2011-06-01T05:40:00Z,27.2070,-90.2830,60.4,5.5,95.0,99.0,'11111222,11111222,11144222' 
ADCP,ioos:station:wmo:42369:1,2011-06-01T06:00:00Z,27.2070,-90.2830,60.4,5.1,97.0,99.0,'11111222,11111222,11144222' 
ADCP,ioos:station:wmo:42369:1,2011-06-01T06:20:00Z,27.2070,-90.2830,60.4,5.1,92.0,99.0,'11111222,11111222,11144222' 
ADCP,ioos:station:wmo:42369:1,2011-06-01T06:40:00Z,27.2070,-90.2830,60.4,5.0,94.0,99.0,'11111222,11111222,11144222' 
ADCP,ioos:station:wmo:42369:1,2011-06-01T07:00:00Z,27.2070,-90.2830,60.4,4.5,92.0,99.0,'11111222,11111222,11144222' 
ADCP,ioos:station:wmo:42369:1,2011-06-01T07:20:00Z,27.2070,-90.2830,60.4,4.5,93.0,99.0,'11111222,11111222,11144222' 
ADCP,ioos:station:wmo:42369:1,2011-06-01T07:40:00Z,27.2070,-90.2830,60.4,4.4,84.0,99.0,'11111222,11111222,11144222' 
ADCP,ioos:station:wmo:42369:1,2011-06-01T08:00:00Z,27.2070,-90.2830,60.4,4.5,93.0,99.0,'11111222,11111222,11144222' 
ADCP,ioos:station:wmo:42369:1,2011-06-01T08:20:00Z,27.2070,-90.2830,60.4,4.5,92.0,99.0,'11111222,11111222,11144222' 
ADCP,ioos:station:wmo:42369:1,2011-06-01T08:40:00Z,27.2070,-90.2830,60.4,4.4,89.0,99.0,'11111222,11111222,11144222' 
ADCP,ioos:station:wmo:42369:1,2011-06-01T09:00:00Z,27.2070,-90.2830,60.4,4.3,79.0,99.0,'11111222,11111222,11144222' 
ADCP,ioos:station:wmo:42369:1,2011-06-01T09:20:00Z,27.2070,-90.2830,60.4,4.3,79.0,99.0,'11111222,11111222,11144222' 
ADCP,ioos:station:wmo:42369:1,2011-06-01T09:40:00Z,27.2070,-90.2830,60.4,4.1,75.0,99.0,'11111222,11111222,11144222' 
ADCP,ioos:station:wmo:42369:1,2011-06-01T10:00:00Z,27.2070,-90.2830,60.4,3.5,79.0,99.0,'11111222,11111222,11144222' 
ADCP,ioos:station:wmo:42369:1,2011-06-01T10:20:00Z,27.2070,-90.2830,60.4,3.4,70.0,99.0,'11111222,11111222,11144222' 
ADCP,ioos:station:wmo:42369:1,2011-06-01T10:40:00Z,27.2070,-90.2830,60.4,3.8,64.0,99.0,'11111222,11111222,11144222' 
ADCP,ioos:station:wmo:42369:1,2011-06-01T11:00:00Z,27.2070,-90.2830,60.4,4.2,65.0,99.0,'11111222,11111222,11144222' 
ADCP,ioos:station:wmo:42369:1,2011-06-01T11:20:00Z,27.2070,-90.2830,60.4,4.5,64.0,99.0,'11111222,11111222,11144222' 
ADCP,ioos:station:wmo:42369:1,2011-06-01T11:40:00Z,27.2070,-90.2830,60.4,4.7,61.0,99.0,'11111222,11111222,11144222' 
ADCP,ioos:station:wmo:42369:1,2011-06-01T12:00:00Z,27.2070,-90.2830,60.4,4.2,66.0,99.0,'11111222,11111222,11144222' 
ADCP,ioos:station:wmo:42369:1,2011-06-01T12:20:00Z,27.2070,-90.2830,60.4,4.5,61.0,99.0,'11111222,11111222,11144222' 
ADCP,ioos:station:wmo:42369:1,2011-06-01T12:40:00Z,27.2070,-90.2830,60.4,4.4,51.0,99.0,'11111222,11111222,11144222' 
ADCP,ioos:station:wmo:42369:1,2011-06-01T13:00:00Z,27.2070,-90.2830,60.4,4.5,50.0,99.0,'11111222,11111222,11144222' 
ADCP,ioos:station:wmo:42369:1,2011-06-01T13:20:00Z,27.2070,-90.2830,60.4,4.5,51.0,99.0,'11111222,11111222,11144222' 
ADCP,ioos:station:wmo:42369:1,2011-06-01T13:40:00Z,27.2070,-90.2830,60.4,4.0,48.0,99.0,'11111222,11111222,11144222' 
ADCP,ioos:station:wmo:42369:1,2011-06-01T14:00:00Z,27.2070,-90.2830,60.4,4.6,48.0,99.0,'11111222,11111222,11144222' 
ADCP,ioos:station:wmo:42369:1,2011-06-01T14:20:00Z,27.2070,-90.2830,60.4,4.1,43.0,99.0,'11111222,11111222,11144222' 
ADCP,ioos:station:wmo:42369:1,2011-06-01T14:40:00Z,27.2070,-90.2830,60.4,4.3,43.0,99.0,'11111222,11111222,11144222' 
ADCP,ioos:station:wmo:42369:1,2011-06-01T15:00:00Z,27.2070,-90.2830,60.4,4.7,36.0,99.0,'11111222,11111222,11144222' 
ADCP,ioos:station:wmo:42369:1,2011-06-01T15:20:00Z,27.2070,-90.2830,60.4,5.0,36.0,99.0,'11111222,11111222,11144222' 
ADCP,ioos:station:wmo:42369:1,2011-06-01T15:40:00Z,27.2070,-90.2830,60.4,5.1,38.0,99.0,'11111222,11111222,11144222' 
ADCP,ioos:station:wmo:42369:1,2011-06-01T16:00:00Z,27.2070,-90.2830,60.4,4.6,40.0,99.0,'11111222,11111222,11144222' 
ADCP,ioos:station:wmo:42369:1,2011-06-01T16:20:00Z,27.2070,-90.2830,60.4,4.7,36.0,99.0,'11111222,11111222,11144222' 
ADCP,ioos:station:wmo:42369:1,2011-06-01T16:40:00Z,27.2070,-90.2830,60.4,4.5,37.0,99.0,'11111222,11111222,11144222' 
ADCP,ioos:station:wmo:42369:1,2011-06-01T17:20:00Z,27.2070,-90.2830,60.4,4.7,33.0,99.0,'11111222,11111222,11144222' 
ADCP,ioos:station:wmo:42369:1,2011-06-01T17:40:00Z,27.2070,-90.2830,60.4,5.5,35.0,99.0,'11111222,11111222,11144222' 
ADCP,ioos:station:wmo:42369:1,2011-06-01T18:00:00Z,27.2070,-90.2830,60.4,5.4,40.0,99.0,'11111222,11111222,11144222' 
ADCP,ioos:station:wmo:42369:1,2011-06-01T18:20:00Z,27.2070,-90.2830,60.4,5.4,44.0,99.0,'11111222,11111222,11144222' 
ADCP,ioos:station:wmo:42369:1,2011-06-01T18:40:00Z,27.2070,-90.2830,60.4,5.3,40.0,99.0,'11111222,11111222,11144222' 
ADCP,ioos:station:wmo:42369:1,2011-06-01T19:00:00Z,27.2070,-90.2830,60.4,5.6,39.0,99.0,'11111222,11111222,11144222' 
ADCP,ioos:station:wmo:42369:1,2011-06-01T19:20:00Z,27.2070,-90.2830,60.4,5.8,42.0,99.0,'11111222,11111222,11144222' 
ADCP,ioos:station:wmo:42369:1,2011-06-01T19:40:00Z,27.2070,-90.2830,60.4,5.7,44.0,99.0,'11111222,11111222,11144222' 
ADCP,ioos:station:wmo:42369:1,2011-06-01T20:00:00Z,27.2070,-90.2830,60.4,5.5,47.0,99.0,'11111222,11111222,11144222' 
ADCP,ioos:station:wmo:42369:1,2011-06-01T20:20:00Z,27.2070,-90.2830,60.4,5.2,48.0,99.0,'11111222,11111222,11144222' 
ADCP,ioos:station:wmo:42369:1,2011-06-01T20:40:00Z,27.2070,-90.2830,60.4,5.0,51.0,99.0,'11111222,11111222,11144222' 
ADCP,ioos:station:wmo:42369:1,2011-06-01T21:00:00Z,27.2070,-90.2830,60.4,5.0,60.0,99.0,'11111222,11111222,11144222' 
ADCP,ioos:station:wmo:42369:1,2011-06-01T21:20:00Z,27.2070,-90.2830,60.4,5.1,66.0,99.0,'11111222,11111222,11144222' 
ADCP,ioos:station:wmo:42369:1,2011-06-01T21:40:00Z,27.2070,-90.2830,60.4,4.7,78.0,99.0,'11111222,11111222,11144222' 
ADCP,ioos:station:wmo:42369:1,2011-06-01T22:00:00Z,27.2070,-90.2830,60.4,4.2,81.0,99.0,'11111222,11111222,11144222' 
ADCP,ioos:station:wmo:42369:1,2011-06-01T22:20:00Z,27.2070,-90.2830,60.4,3.7,89.0,99.0,'11111222,11111222,11144222' 
ADCP,ioos:station:wmo:42369:1,2011-06-01T23:00:00Z,27.2070,-90.2830,60.4,2.2,78.0,99.0,'11111222,11111222,11144222' 
ADCP,ioos:station:wmo:42369:1,2011-06-01T23:20:00Z,27.2070,-90.2830,60.4,1.8,78.0,99.0,'11111222,11111222,11144222' 
ADCP,ioos:station:wmo:42369:1,2011-06-01T23:40:00Z,27.2070,-90.2830,60.4,1.9,77.0,99.0,'11111222,11111222,11144222' 
ADCP,ioos:station:wmo:42369:1,2011-06-02T00:00:00Z,27.2070,-90.2830,60.4,2.1,63.0,99.0,'11111222,11111222,11144222' 
ADCP,ioos:station:wmo:42369:1,2011-06-02T00:20:00Z,27.2070,-90.2830,60.4,2.1,47.0,99.0,'11111222,11111222,11144222' 
ADCP,ioos:station:wmo:42369:1,2011-06-02T00:40:00Z,27.2070,-90.2830,60.4,2.3,44.0,99.0,'11111222,11111222,11144222' 
ADCP,ioos:station:wmo:42369:1,2011-06-02T01:00:00Z,27.2070,-90.2830,60.4,2.3,39.0,99.0,'11111222,11111222,11144222' 
ADCP,ioos:station:wmo:42369:1,2011-06-02T01:20:00Z,27.2070,-90.2830,60.4,2.3,29.0,99.0,'11111222,11111222,11144222' 
ADCP,ioos:station:wmo:42369:1,2011-06-02T01:40:00Z,27.2070,-90.2830,60.4,1.7,34.0,99.0,'11111222,11111222,11144222' 
ADCP,ioos:station:wmo:42369:1,2011-06-02T02:00:00Z,27.2070,-90.2830,60.4,1.4,50.0,99.0,'11111222,11111222,11144222' 
ADCP,ioos:station:wmo:42369:1,2011-06-02T02:20:00Z,27.2070,-90.2830,60.4,1.2,314.0,99.0,'11111222,11111222,11144222' 
ADCP,ioos:station:wmo:42369:1,2011-06-02T03:00:00Z,27.2070,-90.2830,60.4,0.9,313.0,99.0,'11111222,11111222,11144222' 
ADCP,ioos:station:wmo:42369:1,2011-06-02T03:20:00Z,27.2070,-90.2830,60.4,0.2,229.0,99.0,'11111222,11111222,11144222' 
ADCP,ioos:station:wmo:42369:1,2011-06-02T03:40:00Z,27.2070,-90.2830,60.4,0.2,266.0,99.0,'11111222,11111222,11144222' 
ADCP,ioos:station:wmo:42369:1,2011-06-02T04:20:00Z,27.2070,-90.2830,60.4,1.6,266.0,99.0,'11111222,11111222,11144222' 
ADCP,ioos:station:wmo:42369:1,2011-06-02T04:40:00Z,27.2070,-90.2830,60.4,2.7,285.0,99.0,'11111222,11111222,11144222' 
ADCP,ioos:station:wmo:42369:1,2011-06-02T05:00:00Z,27.2070,-90.2830,60.4,3.3,296.0,99.0,'11111222,11111222,11144222' 
ADCP,ioos:station:wmo:42369:1,2011-06-02T05:20:00Z,27.2070,-90.2830,60.4,3.9,293.0,99.0,'11111222,11111222,11144222' 
ADCP,ioos:station:wmo:42369:1,2011-06-02T05:40:00Z,27.2070,-90.2830,60.4,4.0,294.0,99.0,'11111222,11111222,11144222' 
ADCP,ioos:station:wmo:42369:1,2011-06-02T06:00:00Z,27.2070,-90.2830,60.4,3.5,294.0,99.0,'11111222,11111222,11144222' 
ADCP,ioos:station:wmo:42369:1,2011-06-02T06:20:00Z,27.2070,-90.2830,60.4,3.2,288.0,99.0,'11111222,11111222,11144222' 
ADCP,ioos:station:wmo:42369:1,2011-06-02T07:00:00Z,27.2070,-90.2830,60.4,2.8,273.0,99.0,'11111222,11111222,11144222' 
ADCP,ioos:station:wmo:42369:1,2011-06-02T07:20:00Z,27.2070,-90.2830,60.4,2.4,258.0,99.0,'11111222,11111222,11144222' 
ADCP,ioos:station:wmo:42369:1,2011-06-02T07:40:00Z,27.2070,-90.2830,60.4,1.4,216.0,99.0,'11111222,11111222,11144222' 
ADCP,ioos:station:wmo:42369:1,2011-06-02T08:20:00Z,27.2070,-90.2830,60.4,2.2,307.0,99.0,'11111222,11111222,11144222' 
ADCP,ioos:station:wmo:42369:1,2011-06-02T08:40:00Z,27.2070,-90.2830,60.4,3.1,308.0,99.0,'11111222,11111222,11144222' 
ADCP,ioos:station:wmo:42369:1,2011-06-02T09:00:00Z,27.2070,-90.2830,60.4,3.1,306.0,99.0,'11111222,11111222,11144222' 
ADCP,ioos:station:wmo:42369:1,2011-06-02T09:20:00Z,27.2070,-90.2830,60.4,3.9,337.0,99.0,'11111222,11111222,11144222' 
ADCP,ioos:station:wmo:42369:1,2011-06-02T09:40:00Z,27.2070,-90.2830,60.4,4.2,338.0,99.0,'11111222,11111222,11144222' 
ADCP,ioos:station:wmo:42369:1,2011-06-02T10:00:00Z,27.2070,-90.2830,60.4,4.7,339.0,99.0,'11111222,11111222,11144222' 
ADCP,ioos:station:wmo:42369:1,2011-06-02T10:20:00Z,27.2070,-90.2830,60.4,5.0,347.0,99.0,'11111222,11111222,11144222' 
ADCP,ioos:station:wmo:42369:1,2011-06-02T10:40:00Z,27.2070,-90.2830,60.4,6.5,349.0,99.0,'11111222,11111222,11144222' 
ADCP,ioos:station:wmo:42369:1,2011-06-02T11:00:00Z,27.2070,-90.2830,60.4,5.4,344.0,99.0,'11111222,11111222,11144222' 
ADCP,ioos:station:wmo:42369:1,2011-06-02T11:20:00Z,27.2070,-90.2830,60.4,5.6,343.0,99.0,'11111222,11111222,11144222' 
ADCP,ioos:station:wmo:42369:1,2011-06-02T11:40:00Z,27.2070,-90.2830,60.4,4.8,345.0,99.0,'11111222,11111222,11144222' 
ADCP,ioos:station:wmo:42369:1,2011-06-02T12:20:00Z,27.2070,-90.2830,60.4,5.4,343.0,99.0,'11111222,11111222,11144222' 
ADCP,ioos:station:wmo:42369:1,2011-06-02T12:40:00Z,27.2070,-90.2830,60.4,5.6,341.0,99.0,'11111222,11111222,11144222' 
ADCP,ioos:station:wmo:42369:1,2011-06-02T13:00:00Z,27.2070,-90.2830,60.4,5.5,343.0,99.0,'11111222,11111222,11144222' 
ADCP,ioos:station:wmo:42369:1,2011-06-02T13:20:00Z,27.2070,-90.2830,60.4,5.7,348.0,99.0,'11111222,11111222,11144222' 
ADCP,ioos:station:wmo:42369:1,2011-06-02T13:40:00Z,27.2070,-90.2830,60.4,5.5,340.0,99.0,'11111222,11111222,11144222' 
ADCP,ioos:station:wmo:42369:1,2011-06-02T14:00:00Z,27.2070,-90.2830,60.4,5.7,347.0,99.0,'11111222,11111222,11144222' 
ADCP,ioos:station:wmo:42369:1,2011-06-02T14:20:00Z,27.2070,-90.2830,60.4,6.2,344.0,99.0,'11111222,11111222,11144222' 
ADCP,ioos:station:wmo:42369:1,2011-06-02T14:40:00Z,27.2070,-90.2830,60.4,6.1,247.0,99.0,'11111222,11111222,11144222' 
ADCP,ioos:station:wmo:42369:1,2011-06-02T15:00:00Z,27.2070,-90.2830,60.4,5.7,101.0,99.0,'11111222,11111222,11144222' 
ADCP,ioos:station:wmo:42369:1,2011-06-02T15:20:00Z,27.2070,-90.2830,60.4,4.6,39.0,99.0,'11111222,11111222,11144222' 
ADCP,ioos:station:wmo:42369:1,2011-06-02T15:40:00Z,27.2070,-90.2830,60.4,4.7,31.0,99.0,'11111222,11111222,11144222' 
ADCP,ioos:station:wmo:42369:1,2011-06-02T16:00:00Z,27.2070,-90.2830,60.4,4.8,57.0,99.0,'11111222,11111222,11144222' 
ADCP,ioos:station:wmo:42369:1,2011-06-02T16:20:00Z,27.2070,-90.2830,60.4,4.9,64.0,99.0,'11111222,11111222,11144222' 
ADCP,ioos:station:wmo:42369:1,2011-06-02T16:40:00Z,27.2070,-90.2830,60.4,4.7,68.0,99.0,'11111222,11111222,11144222' 
ADCP,ioos:station:wmo:42369:1,2011-06-02T17:00:00Z,27.2070,-90.2830,60.4,4.6,71.0,99.0,'11111222,11111222,11144222' 
ADCP,ioos:station:wmo:42369:1,2011-06-02T17:20:00Z,27.2070,-90.2830,60.4,4.1,74.0,99.0,'11111222,11111222,11144222' 
ADCP,ioos:station:wmo:42369:1,2011-06-02T17:40:00Z,27.2070,-90.2830,60.4,3.6,74.0,99.0,'11111222,11111222,11144222' 
ADCP,ioos:station:wmo:42369:1,2011-06-02T18:00:00Z,27.2070,-90.2830,60.4,3.1,48.0,99.0,'11111222,11111222,11144222' 
ADCP,ioos:station:wmo:42369:1,2011-06-02T18:20:00Z,27.2070,-90.2830,60.4,3.3,61.0,99.0,'11111222,11111222,11144222' 
ADCP,ioos:station:wmo:42369:1,2011-06-02T19:00:00Z,27.2070,-90.2830,60.4,4.0,82.0,99.0,'11111222,11111222,11144222' 
ADCP,ioos:station:wmo:42369:1,2011-06-02T19:20:00Z,27.2070,-90.2830,60.4,4.4,94.0,99.0,'11111222,11111222,11144222' 
ADCP,ioos:station:wmo:42369:1,2011-06-02T19:40:00Z,27.2070,-90.2830,60.4,5.1,109.0,99.0,'11111222,11111222,11144222' 
ADCP,ioos:station:wmo:42369:1,2011-06-02T20:00:00Z,27.2070,-90.2830,60.4,4.6,108.0,99.0,'11111222,11111222,11144222' 
ADCP,ioos:station:wmo:42369:1,2011-06-02T20:20:00Z,27.2070,-90.2830,60.4,5.2,113.0,99.0,'11111222,11111222,11144222' 
ADCP,ioos:station:wmo:42369:1,2011-06-02T20:40:00Z,27.2070,-90.2830,60.4,5.3,114.0,99.0,'11111222,11111222,11144222' 
ADCP,ioos:station:wmo:42369:1,2011-06-02T21:00:00Z,27.2070,-90.2830,60.4,5.2,113.0,99.0,'11111222,11111222,11144222' 
ADCP,ioos:station:wmo:42369:1,2011-06-02T21:20:00Z,27.2070,-90.2830,60.4,5.2,113.0,99.0,'11111222,11111222,11144222' 
ADCP,ioos:station:wmo:42369:1,2011-06-02T22:00:00Z,27.2070,-90.2830,60.4,6.2,130.0,99.0,'11111222,11111222,11144222' 
ADCP,ioos:station:wmo:42369:1,2011-06-02T22:20:00Z,27.2070,-90.2830,60.4,5.8,133.0,99.0,'11111222,11111222,11144222' 
ADCP,ioos:station:wmo:42369:1,2011-06-02T23:00:00Z,27.2070,-90.2830,60.4,5.9,134.0,99.0,'11111222,11111222,11144222' 
ADCP,ioos:station:wmo:42369:1,2011-06-02T23:20:00Z,27.2070,-90.2830,60.4,6.0,139.0,99.0,'11111222,11111222,11144222' 
ADCP,ioos:station:wmo:42369:1,2011-06-02T23:40:00Z,27.2070,-90.2830,60.4,5.9,139.0,99.0,'11111222,11111222,11144222' 
ADCP,ioos:station:wmo:42369:1,2011-06-03T00:00:00Z,27.2070,-90.2830,60.4,6.0,141.0,99.0,'11111222,11111222,11144222' 
ADCP,ioos:station:wmo:42369:1,2011-06-03T00:20:00Z,27.2070,-90.2830,60.4,5.9,134.0,99.0,'11111222,11111222,11144222' 
ADCP,ioos:station:wmo:42369:1,2011-06-03T00:40:00Z,27.2070,-90.2830,60.4,6.3,141.0,99.0,'11111222,11111222,11144222' 
ADCP,ioos:station:wmo:42369:1,2011-06-03T01:00:00Z,27.2070,-90.2830,60.4,6.1,138.0,99.0,'11111222,11111222,11144222' 
ADCP,ioos:station:wmo:42369:1,2011-06-03T01:20:00Z,27.2070,-90.2830,60.4,6.2,138.0,99.0,'11111222,11111222,11144222' 
ADCP,ioos:station:wmo:42369:1,2011-06-03T01:40:00Z,27.2070,-90.2830,60.4,6.2,133.0,99.0,'11111222,11111222,11144222' 
ADCP,ioos:station:wmo:42369:1,2011-06-03T02:00:00Z,27.2070,-90.2830,60.4,5.9,125.0,99.0,'11111222,11111222,11144222' 
ADCP,ioos:station:wmo:42369:1,2011-06-03T02:20:00Z,27.2070,-90.2830,60.4,5.8,115.0,99.0,'11111222,11111222,11144222' 
ADCP,ioos:station:wmo:42369:1,2011-06-03T02:40:00Z,27.2070,-90.2830,60.4,6.1,116.0,99.0,'11111222,11111222,11144222' 
ADCP,ioos:station:wmo:42369:1,2011-06-03T03:00:00Z,27.2070,-90.2830,60.4,6.0,114.0,99.0,'11111222,11111222,11144222' 
ADCP,ioos:station:wmo:42369:1,2011-06-03T03:20:00Z,27.2070,-90.2830,60.4,6.3,117.0,99.0,'11111222,11111222,11144222' 
ADCP,ioos:station:wmo:42369:1,2011-06-03T03:40:00Z,27.2070,-90.2830,60.4,6.6,121.0,99.0,'11111222,11111222,11144222' 
ADCP,ioos:station:wmo:42369:1,2011-06-03T04:00:00Z,27.2070,-90.2830,60.4,5.8,118.0,99.0,'11111222,11111222,11144222' 
ADCP,ioos:station:wmo:42369:1,2011-06-03T04:20:00Z,27.2070,-90.2830,60.4,5.5,115.0,99.0,'11111222,11111222,11144222' 
ADCP,ioos:station:wmo:42369:1,2011-06-03T04:40:00Z,27.2070,-90.2830,60.4,5.4,110.0,99.0,'11111222,11111222,11144222' 
ADCP,ioos:station:wmo:42369:1,2011-06-03T05:00:00Z,27.2070,-90.2830,60.4,4.9,103.0,99.0,'11111222,11111222,11144222' 
ADCP,ioos:station:wmo:42369:1,2011-06-03T05:20:00Z,27.2070,-90.2830,60.4,5.0,106.0,99.0,'11111222,11111222,11144222' 
ADCP,ioos:station:wmo:42369:1,2011-06-03T05:40:00Z,27.2070,-90.2830,60.4,4.9,104.0,99.0,'11111222,11111222,11144222' 
ADCP,ioos:station:wmo:42369:1,2011-06-03T06:00:00Z,27.2070,-90.2830,60.4,4.7,103.0,99.0,'11111222,11111222,11144222' 
ADCP,ioos:station:wmo:42369:1,2011-06-03T06:20:00Z,27.2070,-90.2830,60.4,4.7,110.0,99.0,'11111222,11111222,11144222' 
ADCP,ioos:station:wmo:42369:1,2011-06-03T06:40:00Z,27.2070,-90.2830,60.4,4.4,107.0,99.0,'11111222,11111222,11144222' 
ADCP,ioos:station:wmo:42369:1,2011-06-03T07:20:00Z,27.2070,-90.2830,60.4,4.7,101.0,99.0,'11111222,11111222,11144222' 
ADCP,ioos:station:wmo:42369:1,2011-06-03T07:40:00Z,27.2070,-90.2830,60.4,5.0,104.0,99.0,'11111222,11111222,11144222' 
ADCP,ioos:station:wmo:42369:1,2011-06-03T08:00:00Z,27.2070,-90.2830,60.4,5.1,100.0,99.0,'11111222,11111222,11144222' 
ADCP,ioos:station:wmo:42369:1,2011-06-03T08:20:00Z,27.2070,-90.2830,60.4,4.8,97.0,99.0,'11111222,11111222,11144222' 
ADCP,ioos:station:wmo:42369:1,2011-06-03T08:40:00Z,27.2070,-90.2830,60.4,4.9,99.0,99.0,'11111222,11111222,11144222' 
ADCP,ioos:station:wmo:42369:1,2011-06-03T09:00:00Z,27.2070,-90.2830,60.4,4.8,98.0,99.0,'11111222,11111222,11144222' 
ADCP,ioos:station:wmo:42369:1,2011-06-03T09:20:00Z,27.2070,-90.2830,60.4,4.5,95.0,99.0,'11111222,11111222,11144222' 
ADCP,ioos:station:wmo:42369:1,2011-06-03T09:40:00Z,27.2070,-90.2830,60.4,4.7,92.0,99.0,'11111222,11111222,11144222' 
ADCP,ioos:station:wmo:42369:1,2011-06-03T10:00:00Z,27.2070,-90.2830,60.4,4.2,95.0,99.0,'11111222,11111222,11144222' 
ADCP,ioos:station:wmo:42369:1,2011-06-03T10:20:00Z,27.2070,-90.2830,60.4,4.0,93.0,99.0,'11111222,11111222,11144222' 
ADCP,ioos:station:wmo:42369:1,2011-06-03T10:40:00Z,27.2070,-90.2830,60.4,4.4,92.0,99.0,'11111222,11111222,11144222' 
ADCP,ioos:station:wmo:42369:1,2011-06-03T11:00:00Z,27.2070,-90.2830,60.4,4.9,94.0,99.0,'11111222,11111222,11144222' 
ADCP,ioos:station:wmo:42369:1,2011-06-03T11:20:00Z,27.2070,-90.2830,60.4,5.2,92.0,99.0,'11111222,11111222,11144222' 
ADCP,ioos:station:wmo:42369:1,2011-06-03T11:40:00Z,27.2070,-90.2830,60.4,5.9,96.0,99.0,'11111222,11111222,11144222' 
ADCP,ioos:station:wmo:42369:1,2011-06-03T12:00:00Z,27.2070,-90.2830,60.4,5.7,95.0,99.0,'11111222,11111222,11144222' 
ADCP,ioos:station:wmo:42369:1,2011-06-03T12:20:00Z,27.2070,-90.2830,60.4,5.6,92.0,99.0,'11111222,11111222,11144222' 
ADCP,ioos:station:wmo:42369:1,2011-06-03T12:40:00Z,27.2070,-90.2830,60.4,5.5,94.0,99.0,'11111222,11111222,11144222' 
ADCP,ioos:station:wmo:42369:1,2011-06-03T13:00:00Z,27.2070,-90.2830,60.4,5.4,91.0,99.0,'11111222,11111222,11144222' 
ADCP,ioos:station:wmo:42369:1,2011-06-03T13:20:00Z,27.2070,-90.2830,60.4,5.8,89.0,99.0,'11111222,11111222,11144222' 
ADCP,ioos:station:wmo:42369:1,2011-06-03T13:40:00Z,27.2070,-90.2830,60.4,6.1,94.0,99.0,'11111222,11111222,11144222' 
ADCP,ioos:station:wmo:42369:1,2011-06-03T14:00:00Z,27.2070,-90.2830,60.4,6.4,95.0,99.0,'11111222,11111222,11144222' 
ADCP,ioos:station:wmo:42369:1,2011-06-03T14:20:00Z,27.2070,-90.2830,60.4,6.2,87.0,99.0,'11111222,11111222,11144222' 
ADCP,ioos:station:wmo:42369:1,2011-06-03T14:40:00Z,27.2070,-90.2830,60.4,6.1,89.0,99.0,'11111222,11111222,11144222' 
ADCP,ioos:station:wmo:42369:1,2011-06-03T15:00:00Z,27.2070,-90.2830,60.4,6.3,87.0,99.0,'11111222,11111222,11144222' 
ADCP,ioos:station:wmo:42369:1,2011-06-03T15:20:00Z,27.2070,-90.2830,60.4,6.5,91.0,99.0,'11111222,11111222,11144222' 
ADCP,ioos:station:wmo:42369:1,2011-06-03T15:40:00Z,27.2070,-90.2830,60.4,6.3,94.0,99.0,'11111222,11111222,11144222' 
ADCP,ioos:station:wmo:42369:1,2011-06-03T16:00:00Z,27.2070,-90.2830,60.4,6.2,90.0,99.0,'11111222,11111222,11144222' 
ADCP,ioos:station:wmo:42369:1,2011-06-03T16:20:00Z,27.2070,-90.2830,60.4,6.5,90.0,99.0,'11111222,11111222,11144222' 
ADCP,ioos:station:wmo:42369:1,2011-06-03T16:40:00Z,27.2070,-90.2830,60.4,6.4,86.0,99.0,'11111222,11111222,11144222' 
ADCP,ioos:station:wmo:42369:1,2011-06-03T17:00:00Z,27.2070,-90.2830,60.4,6.2,82.0,99.0,'11111222,11111222,11144222' 
ADCP,ioos:station:wmo:42369:1,2011-06-03T17:20:00Z,27.2070,-90.2830,60.4,5.9,87.0,99.0,'11111222,11111222,11144222' 
ADCP,ioos:station:wmo:42369:1,2011-06-03T17:40:00Z,27.2070,-90.2830,60.4,5.6,90.0,99.0,'11111222,11111222,11144222' 
ADCP,ioos:station:wmo:42369:1,2011-06-03T18:00:00Z,27.2070,-90.2830,60.4,5.3,95.0,99.0,'11111222,11111222,11144222' 
ADCP,ioos:station:wmo:42369:1,2011-06-03T18:20:00Z,27.2070,-90.2830,60.4,6.2,99.0,99.0,'11111222,11111222,11144222' 
ADCP,ioos:station:wmo:42369:1,2011-06-03T18:40:00Z,27.2070,-90.2830,60.4,6.1,99.0,99.0,'11111222,11111222,11144222' 
ADCP,ioos:station:wmo:42369:1,2011-06-03T19:00:00Z,27.2070,-90.2830,60.4,5.5,96.0,99.0,'11111222,11111222,11144222' 
ADCP,ioos:station:wmo:42369:1,2011-06-03T19:20:00Z,27.2070,-90.2830,60.4,5.4,97.0,99.0,'11111222,11111222,11144222' 
ADCP,ioos:station:wmo:42369:1,2011-06-03T19:40:00Z,27.2070,-90.2830,60.4,5.1,103.0,99.0,'11111222,11111222,11144222' 
ADCP,ioos:station:wmo:42369:1,2011-06-03T20:00:00Z,27.2070,-90.2830,60.4,5.0,108.0,99.0,'11111222,11111222,11144222' 
ADCP,ioos:station:wmo:42369:1,2011-06-03T20:20:00Z,27.2070,-90.2830,60.4,4.2,104.0,99.0,'11111222,11111222,11144222' 
ADCP,ioos:station:wmo:42369:1,2011-06-03T20:40:00Z,27.2070,-90.2830,60.4,4.3,97.0,99.0,'11111222,11111222,11144222' 
ADCP,ioos:station:wmo:42369:1,2011-06-03T21:00:00Z,27.2070,-90.2830,60.4,4.5,97.0,99.0,'11111222,11111222,11144222' 
ADCP,ioos:station:wmo:42369:1,2011-06-03T21:20:00Z,27.2070,-90.2830,60.4,4.5,97.0,99.0,'11111222,11111222,11144222' 
ADCP,ioos:station:wmo:42369:1,2011-06-03T21:40:00Z,27.2070,-90.2830,60.4,4.8,98.0,99.0,'11111222,11111222,11144222' 
ADCP,ioos:station:wmo:42369:1,2011-06-03T22:00:00Z,27.2070,-90.2830,60.4,4.8,96.0,99.0,'11111222,11111222,11144222' 
ADCP,ioos:station:wmo:42369:1,2011-06-03T22:20:00Z,27.2070,-90.2830,60.4,4.6,94.0,99.0,'11111222,11111222,11144222' 
ADCP,ioos:station:wmo:42369:1,2011-06-03T22:40:00Z,27.2070,-90.2830,60.4,4.3,88.0,99.0,'11111222,11111222,11144222' 
ADCP,ioos:station:wmo:42369:1,2011-06-03T23:20:00Z,27.2070,-90.2830,60.4,4.5,92.0,99.0,'11111222,11111222,11144222' 
ADCP,ioos:station:wmo:42369:1,2011-06-03T23:40:00Z,27.2070,-90.2830,60.4,4.5,90.0,99.0,'11111222,11111222,11144222' 